FW0177 Weather Reports


time (UTC)temp
F
wind
direction
speed
knots
gust
knots
rain 1hr
in
rain 24hr
in
rain mn
in
humidity
%
barometer
mb
20260510224550 80 0 0.0 3.5 0.00 0.00 0.00 69 1016.4
20260510223100 80 0 0.0 1.7 0.00 0.00 0.00 66 1016.5
20260510221550 81 0 0.0 2.6 0.00 0.00 0.00 68 1016.5
20260510220056 81 0 0.9 6.1 0.00 0.00 0.00 66 1016.6
20260510214553 79 0 0.0 1.7 0.00 0.00 0.00 72 1016.5
20260510213052 78 0 0.0 0.0 0.00 0.00 0.00 75 1016.5
20260510211553 79 315 0.9 3.5 0.00 0.00 0.00 72 1016.5
20260510210055 79 0 0.0 1.7 0.00 0.00 0.00 71 1016.6
20260510204553 78 0 0.0 1.7 0.00 0.00 0.00 72 1016.4
20260510203129 78 0 0.0 1.7 0.00 0.00 0.00 72 1016.3
20260510201610 78 0 0.0 0.9 0.00 0.00 0.00 75 1016.5
20260510200051 77 0 0.0 0.0 0.00 0.00 0.00 74 1016.5
20260510194552 77 0 0.0 0.9 0.00 0.00 0.00 73 1016.6
20260510193054 77 0 0.0 0.9 0.00 0.00 0.00 73 1016.4
20260510191605 76 0 0.0 1.7 0.00 0.00 0.00 76 1016.4
20260510184559 76 0 0.0 1.7 0.00 0.00 0.00 77 1016.6
20260510183058 77 0 0.0 2.6 0.00 0.00 0.00 78 1016.7
20260510181558 76 0 0.0 3.5 0.00 0.00 0.00 78 1016.8
20260510180057 75 0 0.0 0.0 0.00 0.00 0.00 77 1017.1
20260510174556 74 0 0.0 0.0 0.00 0.00 0.00 80 1017.4
20260510173056 74 0 0.0 0.0 0.00 0.00 0.00 81 1017.5
20260510171554 73 0 0.0 0.0 0.00 0.00 0.00 84 1017.7
20260510170056 72 0 0.0 0.0 0.00 0.00 0.00 86 1018.1
20260510164555 71 0 0.0 0.0 0.00 0.00 0.00 89 1018.0
20260510163055 70 0 0.0 0.0 0.00 0.00 0.00 88 1018.1
20260510161602 70 0 0.0 0.0 0.00 0.00 0.00 88 1018.3
20260510160135 71 0 0.0 0.0 0.00 0.00 0.00 87 1018.1
20260510154600 71 0 0.0 0.0 0.00 0.00 0.00 87 1018.1
20260510153052 70 0 0.0 0.0 0.00 0.00 0.00 89 1018.0
20260510151556 69 0 0.0 0.0 0.00 0.00 0.00 91 1018.0
20260510150051 67 0 0.0 0.0 0.00 0.00 0.00 93 1018.0
20260510144549 67 0 0.0 0.0 0.00 0.00 0.00 96 1018.0
20260510143050 66 0 0.0 0.0 0.00 0.00 0.00 97 1018.0
20260510141600 66 0 0.0 0.0 0.00 0.00 0.00 98 1017.8
20260510140109 65 0 0.0 0.0 0.00 0.00 0.00 98 1017.9
20260510134602 65 0 0.0 0.0 0.00 0.00 0.00 98 1017.6
20260510133059 65 0 0.0 0.0 0.00 0.00 0.00 98 1017.4
20260510131600 64 0 0.0 0.0 0.00 0.00 0.00 98 1017.3
20260510130057 64 0 0.0 0.0 0.00 0.00 0.00 98 1016.9
20260510124604 64 0 0.0 0.0 0.00 0.00 0.00 98 1016.6
20260510123056 63 0 0.0 0.0 0.00 0.00 0.00 98 1016.6
20260510121556 63 0 0.0 0.0 0.00 0.00 0.00 98 1016.5
20260510120107 63 0 0.0 0.0 0.00 0.00 0.00 98 1016.2
20260510114555 62 0 0.0 0.0 0.00 0.00 0.00 98 1016.0
20260510113103 62 0 0.0 0.0 0.00 0.00 0.00 98 1015.9
20260510111608 62 0 0.0 0.0 0.00 0.00 0.00 98 1015.8
20260510110056 61 0 0.0 0.0 0.00 0.00 0.00 98 1015.5
20260510104554 61 0 0.0 0.0 0.00 0.00 0.00 98 1015.2
20260510103057 61 0 0.0 0.0 0.00 0.00 0.00 97 1015.0
20260510101556 61 0 0.0 0.0 0.00 0.00 0.00 98 1014.9
20260510100055 61 0 0.0 0.0 0.00 0.00 0.00 97 1014.9
20260510094553 61 0 0.0 0.0 0.00 0.00 0.00 97 1014.8
20260510093110 61 0 0.0 0.0 0.00 0.00 0.00 97 1014.6
20260510091555 61 0 0.0 0.0 0.00 0.00 0.00 97 1014.7
20260510090107 62 0 0.0 0.0 0.00 0.00 0.00 97 1014.5
20260510084556 62 0 0.0 0.0 0.00 0.00 0.00 97 1014.3
20260510083109 62 0 0.0 0.0 0.00 0.00 0.00 97 1014.0
20260510081611 62 0 0.0 0.0 0.00 0.00 0.00 97 1013.7
20260510080053 62 0 0.0 0.0 0.00 0.00 0.00 97 1013.6
20260510074552 63 0 0.0 0.0 0.00 0.00 0.00 97 1013.3
20260510073054 63 0 0.0 0.0 0.00 0.00 0.00 97 1013.2
20260510071552 63 0 0.0 0.0 0.00 0.00 0.00 97 1013.3
20260510070054 63 0 0.0 0.0 0.00 0.00 0.00 97 1013.2
20260510064601 63 0 0.0 0.0 0.00 0.00 0.00 97 1013.3
20260510063050 63 0 0.0 0.0 0.00 0.00 0.00 97 1013.4
20260510061550 63 0 0.0 0.0 0.00 0.00 0.00 97 1013.4
20260510060052 63 0 0.0 0.0 0.00 0.00 0.00 97 1013.7
20260510054551 64 0 0.0 0.0 0.00 0.00 0.00 97 1013.9
20260510053056 64 0 0.0 0.0 0.00 0.00 0.00 96 1013.8
20260510051556 64 0 0.0 0.0 0.00 0.00 0.00 97 1014.4
20260510050052 64 0 0.0 0.0 0.00 0.00 0.00 97 1014.4
20260510044610 64 0 0.0 0.0 0.00 0.00 0.00 96 1014.3
20260510043051 65 0 0.0 0.0 0.00 0.00 0.00 96 1014.5
20260510041553 65 0 0.0 0.0 0.00 0.00 0.00 96 1014.3
20260510040054 65 0 0.0 0.0 0.00 0.00 0.00 96 1014.1
20260510034554 65 0 0.0 0.0 0.00 0.00 0.00 96 1014.0
20260510033054 65 0 0.0 0.0 0.00 0.00 0.00 96 1014.5
20260510031555 65 0 0.0 0.0 0.00 0.00 0.00 96 1014.5
20260510030053 66 0 0.0 0.0 0.00 0.00 0.00 95 1014.3
20260510024556 66 0 0.0 0.0 0.00 0.00 0.00 95 1014.2
20260510023053 66 0 0.0 0.0 0.00 0.00 0.00 95 1014.5
20260510021554 66 0 0.0 0.0 0.00 0.00 0.00 95 1014.0
20260510020052 66 0 0.0 0.0 0.00 0.00 0.00 95 1014.3
20260510014554 67 0 0.0 0.0 0.00 0.00 0.00 95 1014.1
20260510013056 67 0 0.0 0.0 0.00 0.00 0.00 94 1014.1
20260510011557 67 0 0.0 0.0 0.00 0.00 0.00 93 1013.7
20260510010112 67 0 0.0 0.0 0.00 0.00 0.00 93 1013.5
20260510004550 67 0 0.0 0.0 0.00 0.00 0.00 92 1013.2
20260510003052 68 0 0.0 0.0 0.00 0.00 0.00 91 1013.2
20260510001553 68 0 0.0 0.9 0.00 0.00 0.00 91 1013.1
20260510000054 68 0 0.0 0.9 0.00 0.00 0.00 90 1012.9
20260509234609 69 0 0.0 1.7 0.00 0.00 0.00 90 1013.0
20260509233052 69 0 0.0 1.7 0.00 0.00 0.00 89 1012.8
20260509231550 69 0 0.0 0.0 0.00 0.00 0.00 89 1012.7
20260509230053 69 0 0.0 0.0 0.00 0.00 0.00 90 1012.4